DW9177 Weather Reports


Display with metric or nautical units.
time (UTC)temp
F
wind
direction
speed
MPH
gust
MPH
rain 1hr
in
rain 24hr
in
rain mn
in
humidity
%
barometer
mb
20260905073022 78 99 0.0 0.0 0.00 0.00 0.00 63 1008.8
20260905071515 79 179 0.0 1.0 0.00 0.00 0.00 62 1008.7
20260905070009 79 103 0.0 7.0 0.00 0.00 0.00 61 1008.6
20260905064508 79 106 3.0 7.0 0.00 0.00 0.00 61 1008.6
20260905063007 80 117 1.0 8.0 0.00 0.00 0.00 60 1008.6
20260905061506 81 109 0.0 5.0 0.00 0.00 0.00 59 1008.5
20260905060021 81 100 1.0 5.0 0.00 0.00 0.00 59 1008.5
20260905054506 82 110 3.0 7.0 0.00 0.00 0.00 57 1008.6
20260905053006 82 107 1.0 5.0 0.00 0.00 0.00 57 1008.5
20260905051507 83 102 2.0 6.0 0.00 0.00 0.00 56 1008.3
20260905050005 83 119 0.0 4.0 0.00 0.00 0.00 55 1008.2
20260905044504 84 107 3.0 6.0 0.00 0.00 0.00 53 1008.1
20260905043003 84 106 2.0 5.0 0.00 0.00 0.00 53 1008.2
20260905041502 85 106 3.0 7.0 0.00 0.00 0.00 52 1008.2
20260905040003 85 106 1.0 5.0 0.00 0.00 0.00 50 1008.2
20260905034502 86 103 0.0 0.0 0.00 0.00 0.00 47 1008.1
20260905033100 87 121 0.0 5.0 0.00 0.00 0.00 45 1008.0
20260905031559 87 132 0.0 4.0 0.00 0.00 0.00 41 1007.7
20260905030101 88 129 0.0 0.0 0.00 0.00 0.00 38 1007.5
20260905024558 89 134 0.0 0.0 0.00 0.00 0.00 36 1007.3
20260905023058 89 135 0.0 2.0 0.00 0.00 0.00 35 1007.0
20260905021557 90 137 1.0 4.0 0.00 0.00 0.00 35 1006.8
20260905020056 90 155 0.0 4.0 0.00 0.00 0.00 34 1006.7
20260905014555 91 145 1.0 5.0 0.00 0.00 0.00 33 1006.6
20260905013055 91 148 1.0 5.0 0.00 0.00 0.00 33 1006.5
20260905011614 93 140 2.0 8.0 0.00 0.00 0.00 33 1006.4
20260905010053 94 145 2.0 8.0 0.00 0.00 0.00 33 1006.4
20260905004552 95 143 2.0 5.0 0.00 0.00 0.00 32 1006.3
20260905003056 95 137 2.0 7.0 0.00 0.00 0.00 34 1006.3
20260905001605 95 143 4.0 12.0 0.00 0.00 0.00 33 1006.0
20260905000051 95 141 4.0 10.0 0.00 0.00 0.00 33 1006.0
20260904234550 96 149 3.0 10.0 0.00 0.00 0.00 32 1006.0
20260904233102 95 134 3.0 8.0 0.00 0.00 0.00 32 1006.0
20260904231547 97 136 0.0 7.0 0.00 0.00 0.00 31 1006.1
20260904230047 96 155 2.0 10.0 0.00 0.00 0.00 33 1006.2
20260904224545 96 134 4.0 8.0 0.00 0.00 0.00 32 1006.2
20260904223045 96 134 1.0 8.0 0.00 0.00 0.00 35 1006.3
20260904221544 96 139 3.0 8.0 0.00 0.00 0.00 35 1006.4
20260904220052 95 140 1.0 9.0 0.00 0.00 0.00 36 1006.6
20260904214539 97 147 2.0 6.0 0.00 0.00 0.00 33 1006.7
20260904213038 96 140 2.0 8.0 0.00 0.00 0.00 35 1006.9
20260904211536 95 133 1.0 6.0 0.00 0.00 0.00 36 1007.1
20260904210032 96 139 1.0 6.0 0.00 0.00 0.00 33 1007.4
20260904204532 95 108 4.0 7.0 0.00 0.00 0.00 33 1007.5
20260904203030 95 108 1.0 8.0 0.00 0.00 0.00 35 1007.8
20260904201531 95 131 3.0 6.0 0.00 0.00 0.00 38 1008.1
20260904200029 96 104 2.0 8.0 0.00 0.00 0.00 35 1008.3
20260904194525 95 128 3.0 8.0 0.00 0.00 0.00 38 1008.4
20260904193024 95 105 3.0 7.0 0.00 0.00 0.00 39 1008.5
20260904191519 93 146 2.0 8.0 0.00 0.00 0.00 40 1008.8
20260904190017 92 108 2.0 5.0 0.00 0.00 0.00 40 1009.0
20260904184515 92 101 2.0 9.0 0.00 0.00 0.00 44 1009.1
20260904183013 92 101 2.0 6.0 0.00 0.00 0.00 45 1009.3
20260904181513 91 107 4.0 8.0 0.00 0.00 0.00 47 1009.6
20260904180011 90 127 0.0 6.0 0.00 0.00 0.00 49 1009.8
20260904174514 89 92 0.0 5.0 0.00 0.00 0.00 52 1009.9
20260904173003 89 152 0.0 5.0 0.00 0.00 0.00 51 1010.1
20260904171502 89 141 0.0 3.0 0.00 0.00 0.00 52 1010.2
20260904170107 88 132 0.0 2.0 0.00 0.00 0.00 54 1010.4
20260904164600 88 126 0.0 4.0 0.00 0.00 0.00 54 1010.3
20260904163054 87 143 1.0 4.0 0.00 0.00 0.00 55 1010.2
20260904161552 86 158 1.0 3.0 0.00 0.00 0.00 56 1010.2
20260904160050 86 104 0.0 3.0 0.00 0.00 0.00 58 1010.2
20260904154548 84 130 1.0 5.0 0.00 0.00 0.00 60 1010.2
20260904153055 83 130 0.0 6.0 0.00 0.00 0.00 62 1010.2
20260904151547 82 124 1.0 5.0 0.00 0.00 0.00 63 1010.2
20260904150050 82 124 1.0 5.0 0.00 0.00 0.00 64 1010.2
20260904144545 82 129 0.0 3.0 0.00 0.00 0.00 64 1010.2
20260904143038 80 125 1.0 3.0 0.00 0.00 0.00 66 1010.2
20260904141538 79 120 0.0 1.0 0.00 0.00 0.00 69 1010.0
20260904140034 77 104 1.0 4.0 0.00 0.00 0.00 72 1009.8
20260904134533 76 105 1.0 4.0 0.00 0.00 0.00 73 1009.7
20260904133031 75 115 0.0 5.0 0.00 0.00 0.00 75 1009.4
20260904131526 74 113 0.0 4.0 0.00 0.00 0.00 76 1009.1
20260904130024 75 106 0.0 1.0 0.00 0.00 0.00 75 1008.9
20260904124523 75 108 0.0 0.0 0.00 0.00 0.00 76 1008.7
20260904123021 75 105 0.0 0.0 0.00 0.00 0.00 76 1008.5
20260904121520 75 103 0.0 0.0 0.00 0.00 0.00 76 1008.3
20260904120020 75 103 0.0 0.0 0.00 0.00 0.00 77 1008.3
20260904114526 75 102 0.0 0.0 0.00 0.00 0.00 76 1008.2
20260904113033 75 103 0.0 0.0 0.00 0.00 0.00 75 1008.2
20260904111518 76 106 0.0 0.0 0.00 0.00 0.00 75 1008.2
20260904110018 76 125 0.0 0.0 0.00 0.00 0.00 74 1008.3
20260904104517 76 176 0.0 0.0 0.00 0.00 0.00 74 1008.2
20260904103016 76 176 0.0 0.0 0.00 0.00 0.00 74 1008.2
20260904101514 75 91 0.0 0.0 0.00 0.00 0.00 76 1008.2
20260904100012 75 110 0.0 0.0 0.00 0.00 0.00 76 1008.2
20260904094513 75 125 0.0 0.0 0.00 0.00 0.00 76 1008.1
20260904093012 75 127 0.0 0.0 0.00 0.00 0.00 76 1008.1
20260904091510 75 127 0.0 0.0 0.00 0.00 0.00 75 1008.0
20260904090010 75 127 0.0 0.0 0.00 0.00 0.00 74 1008.0
20260904084507 76 127 0.0 0.0 0.00 0.00 0.00 73 1008.0
20260904083006 76 131 0.0 0.0 0.00 0.00 0.00 73 1008.1
20260904081505 76 131 0.0 0.0 0.00 0.00 0.00 72 1008.1
20260904080005 76 131 0.0 0.0 0.00 0.00 0.00 72 1008.2
20260904074500 77 131 0.0 0.0 0.00 0.00 0.00 72 1008.1